Погода в Платаниасе

Греция     35°31′01″N   23°54′24″E
темп.,
°C
ветер,
м/с
пор.,
м/с
влажн.,
%
обл.,
%
осадки,
мм/ч
давл.,
гПа
погр.,
м
3 августа, вт
вт300:00+29юз44330 0.0 101138
03:00+30юз22300 0.0 101020
06:00+29ююз22310 0.0 101113
09:00+33св15290 0.0 1012558
12:00+35св49270 0.0 1012944
15:00+36св47250 0.0 1012928
18:00+36всв35220 0.0 1011708
21:00+30ююз22330 0.0 101214
4 августа, ср
ср400:00+31ю33250 0.0 101217
03:00+31ююз33240 0.0 101216
06:00+30ю11290 0.0 101212
09:00+33св13260 0.0 1013424
12:00+35ссв36250 0.0 1013876
15:00+34св35320 0.0 1013745
18:00+35св35270 0.0 1012670
21:00+30ююз12350 0.0 101313
5 августа, чт
чт500:00+30ю22280 0.0 101313
03:00+30ююз22300 0.0 101213
06:00+29ююз22290 0.0 101112
09:00+33ссз11270 0.0 1011301
12:00+35с35250 0.0 10101163
15:00+34ссз34300 0.0 10101077
18:00+33сз23290 0.0 1009770
21:00+31зюз33320 0.0 100817
6 августа, пт
пт600:00+31ююз22280 0.0 100814
03:00+31юз33270 0.0 100718
06:00+30юз43260 0.0 100623
09:00+35з46190 0.0 1007495
12:00+35зсз79230 0.0 10071037
15:00+36з910230 0.0 10051338
18:00+33з811330 0.0 1005858
21:00+29зюз69390 0.0 1005276
7 августа, сб
сб700:00+27юз610280 0.0 1006245
03:00+26зюз610390 0.0 1005343
06:00+23зюз57680 0.0 1006306
09:00+29зсз34390 0.0 1007491
12:00+29с44520 0.0 1009786
15:00+29ссв55510 0.0 1009768
18:00+29св33480 0.0 1010465
21:00+26вюв11530 0.0 101114